ONEWEB-0048 (45153 NORAD) Tracking and Keplerian Element Data

This shows tracking and keplerian element data for the satellite.

Feedback or suggestion? Click here.




ElementValue
Catalog45153
NameONEWEB-0048
Epoch Orbit925
Epoch Day94.13743953
Epoch Year2020
RAAN145.4296
Inclination87.3793
Eccentricity0.00211
Argument of Perigee98.7776
Mean Anonmoly261.5828
Mean Motion14.638799
Decay Rate-0.00364262
L11 45153U 20008Y 20094.13743953 -.00364262 00000-0 -72833-1 0 9997
L22 45153 87.3793 145.4296 0021100 98.7776 261.5828 14.63879900 9251

Live tracking and technical data element details for ONEWEB-0048 (NORAD 45153). ONEWEB-0048 can be tracked NOW for your location showing map with azimuth and elevation plus other details from your city location.

Track the satellite on the map from your city or location and see movement details for azimuth, elevation, latitude, longitude, range, height, and movement on the map or in text.







IsCatalogInMostPopularTable: catalog: 45153, numindb: 9
Update: records affected: 1



GetName: 45153 ONEWEB-0048

Hit Count: updated at: Sun, 05 Apr 2020 19:33:04 GMT